Lapse_Rate
4.9 4.2 4.2 4.0 4.2 4.7 5.1 5.4 5.8 5.4 5.1 5.3 5.4 5.4 6.0 5.6 5.0 4.7 5.7 5.4 6.0 6.3
5.2 5.0 4.3 4.1 3.9 4.0 4.6 5.3 5.8 6.1 5.5 5.5 5.5 4.9 5.4 5.5 5.7 5.4 5.1 4.9 5.1 5.7
5.1 4.9 4.3 4.0 4.1 3.8 4.0 4.9 5.1 5.8 6.3 5.9 5.8 5.4 5.0 5.2 5.9 5.3 5.7 4.7 5.3 5.0
5.2 5.1 4.7 4.4 4.2 3.8 4.0 4.6 5.1 5.3 6.3 6.4 6.2 5.9 5.3 4.9 5.2 5.9 5.7 5.5 5.5 4.9
5.1 5.1 5.1 4.6 4.7 4.9 4.5 4.6 5.0 5.1 5.5 6.2 6.6 6.1 6.1 5.1 4.9 5.2 5.3 5.7 5.2 4.9
5.2 5.1 5.4 5.0 4.7 4.8 4.9 4.7 5.3 5.6 6.2 6.1 6.1 6.4 6.6 6.1 4.8 4.2 5.4 5.5 5.5 5.6
5.6 5.3 5.2 5.5 4.9 5.0 5.1 4.8 5.2 5.6 5.7 5.9 6.2 6.2 6.7 6.9 5.2 4.1 4.1 4.8 4.5 5.4
6.3 5.5 5.3 5.4 5.7 5.1 5.3 5.3 5.0 5.5 5.3 6.1 5.9 6.3 6.4 6.6 6.3 4.5 4.2 4.0 4.9 5.4
6.8 6.3 5.7 5.7 5.4 5.6 5.2 5.3 5.3 4.7 5.5 5.2 5.3 6.1 6.0 6.4 6.2 4.9 4.3 4.2 4.6 5.2
6.7 7.1 6.0 6.0 5.9 5.5 5.2 5.0 4.8 4.8 4.2 4.3 5.1 4.7 5.4 5.6 6.2 5.7 4.8 4.5 4.7 5.2
6.6 6.6 6.8 5.8 5.9 5.5 5.2 5.1 4.7 4.7 4.7 4.6 3.6 4.1 4.8 5.4 4.3 4.6 5.3 6.0 5.3 4.8
6.4 6.0 6.1 5.8 5.5 5.5 4.8 4.9 5.2 4.7 4.7 5.0 4.1 3.1 3.6 4.3 5.3 5.0 5.6 6.1 6.0 5.0
5.8 5.4 5.3 5.5 5.2 4.9 4.7 4.6 4.0 4.7 4.8 4.3 4.7 4.4 3.7 3.4 4.5 4.2 4.4 5.7 5.9 5.2
5.8 5.5 4.9 4.8 5.0 4.9 4.3 3.8 4.1 3.4 4.0 4.4 4.7 4.5 4.3 3.4 3.2 3.2 4.3 4.7 5.3 5.6
Wind_Speed
19 12 11 13 12 11 10 11 15 14 13 13 13 14 12 12 14 14 9 16 15 15
16 18 15 15 15 11 12 11 14 16 13 12 12 13 15 12 15 15 15 11 19 17
15 17 14 14 15 16 14 14 14 17 15 14 13 12 14 15 17 18 15 10 16 17
16 16 15 14 14 15 15 15 14 15 18 16 16 15 12 14 17 19 19 19 14 14
16 15 14 15 17 15 16 16 14 14 15 18 17 16 15 14 15 20 23 20 17 18
17 15 15 16 17 16 16 16 15 14 14 16 18 18 18 16 15 18 19 21 21 14
17 14 15 16 16 16 14 16 15 14 14 15 16 19 20 19 17 17 18 17 13 8
14 16 15 16 17 16 15 15 16 15 13 14 15 15 21 21 19 20 7 7 8 6
15 16 17 17 16 16 16 14 16 14 15 13 10 26 31 26 16 17 11 8 9 5
16 15 17 17 16 15 16 16 15 14 16 14 14 25 30 29 13 13 12 11 7 7
15 17 17 17 16 17 14 15 14 14 15 13 13 25 26 25 13 12 13 11 9 9
13 16 17 16 15 14 14 14 14 14 15 16 14 22 22 19 12 13 13 10 11 13
14 14 15 16 13 13 12 13 10 12 14 14 14 23 27 22 10 11 10 11 10 13
14 14 14 13 11 12 12 11 10 10 12 12 14 17 24 24 11 9 9 9 9 8
Wind_Direction
349 347 340 338 333 330 334 335 330 325 320 313 299 305 224 215 215 208 221 242 234 210
347 348 345 340 334 332 331 338 344 331 329 326 307 287 265 216 214 205 212 219 218 221
346 352 341 341 342 338 333 336 350 348 343 342 332 309 301 223 222 214 212 210 220 217
355 354 350 347 346 342 338 340 353 356 350 349 344 333 316 252 212 216 215 213 191 222
356 353 344 349 351 346 344 345 347 359 358 351 348 342 339 322 246 212 213 205 194 199
355 355 347 349 352 350 342 349 349 356 2 356 352 351 347 330 316 220 206 208 212 200
357 344 343 350 352 350 349 352 349 353 355 5 357 358 352 344 336 290 201 197 205 203
353 347 348 350 349 352 353 354 355 352 355 360 7 359 359 357 347 324 143 128 113 54
354 344 354 352 351 355 357 353 1 352 359 358 360 354 5 6 351 336 13 68 94 63
351 349 351 353 352 351 354 354 356 357 0 353 6 1 10 1 349 340 358 27 39 61
351 348 352 354 355 352 350 352 345 355 358 5 7 2 10 3 347 342 356 9 19 38
351 348 351 356 354 353 345 346 344 346 356 3 3 359 10 6 4 1 346 341 13 24
355 353 351 350 356 352 344 340 335 340 344 357 7 0 8 7 356 355 342 337 352 10
357 359 2 354 348 349 353 345 352 357 356 355 2 4 4 358 356 356 340 337 338 351